sat.trackr.live / text

‹ back to catalog

2024-174C

NORAD 61240 · 2024-174C

PAYLOAD ACTIVE UNKNOWN

§ Identity

Operator
Country
PRC
Launch date
2024-09-24
Launch site
JSC
Launch vehicle
Mass (kg)
RCS (m²)

External: N2YO · Heavens-Above · Gunter

§ Orbital elements

Epoch: 2026-09-22T21:12:10.999296Z

Period
94.79 min
Inclination
97.4499°
Eccentricity
0.0001623
Mean motion
15.19133942 rev/d
Perigee alt
507.3 km
Apogee alt
509.6 km
Semi-major
6,886.6 km
B*
2.6506e-5
RAAN
272.4730°
Arg perigee
94.7080°
Mean anomaly
265.4340°
Rev number
11,051

§ Raw data

2024-174C1 61240U 24174C   26265.88346064  .00000489  00000+0  26506-4 0  99942 61240  97.4499 272.4730 0001623  94.7080 265.4340 15.19133942110512

JSON: /api/v1/satellites/61240 · /tle

For live sub-satellite position, see the globe view (requires WebGL).

§ Visibility from observer

Set your observer location to see the next 7 days of passes ≥ 10°. The values pass through the URL so the page stays shareable.

No JS? Fill the form by hand. The geolocation button needs JavaScript.